Hourly Data Report for November 17, 2017

SHEARWATER RCS
NOVA SCOTIA

44°37'47.000" N
63°30'48.000" W
24.00 m
8205092
71264
AAW

Download Data

Hourly Data (November 2017)
Hourly Data Report for November 17, 2017
TIME
LST
Temp Definition
°C
Dew Point Definition
°C
Rel Hum Definition
%
Precip. Amount Definition
mm

Wind Dir Definition
10's deg

Wind Spd Definition
km/h
Visibility Definition
km
Stn Press Definition
kPa
Hmdx Definition


Wind Chill Definition


Weather Definition


00:00 10.1 8.9 92 4.7 11 26   100.20     LegendNANA
01:00 9.9 8.9 93 2.6 10 28   99.95     LegendNANA
02:00 10.8 10.1 96 8.9 11 33   99.54     LegendNANA
03:00 11.8 11.1 96 15.0 17 25   99.50     LegendNANA
04:00 11.5 10.9 96 1.6 15 11   99.30     LegendNANA
05:00 10.1 9.0 93 0.9 21 18   99.20     LegendNANA
06:00 9.8 8.1 89 0.0 20 14   99.15     LegendNANA
07:00 8.6 5.8 83 0.0 23 18   99.21     LegendNANA
08:00 7.2 4.4 82 0.0 24 19   99.28     LegendNANA
09:00 7.1 3.8 79 0.0 23 20   99.24     LegendNANA
10:00 7.1 3.8 79 0.0 23 20   99.18     LegendNANA
11:00 7.4 3.6 77 0.0 24 21   99.17     LegendNANA
12:00 7.7 3.5 75 0.0 25 27   99.10     LegendNANA
13:00 7.4 2.7 72 0.0 25 24   99.08     LegendNANA
14:00 6.8 2.6 75 0.0 26 19   99.11     LegendNANA
15:00 6.5 2.1 74 0.0 27 21   99.17     LegendNANA
16:00 6.2 1.8 73 0.0 27 21   99.22     LegendNANA
17:00 5.4 1.9 78 0.0 27 21   99.32     LegendNANA
18:00 4.5 2.3 86 0.0 27 19   99.46     LegendNANA
19:00 4.1 1.7 84 0.0 27 21   99.57     LegendNANA
20:00 3.2 1.1 86 0.0 28 16   99.66     LegendNANA
21:00 3.5 -0.2 77 0.2 29 22   99.69     LegendNANA
22:00 3.2 -1.0 74 0.0 29 24   99.71     LegendNANA
23:00 2.9 -1.1 75 0.0 28 23   99.75     LegendNANA

Notes on Data Quality.

Legend

  • E = Estimated
  • M = Missing
  • NA = Not Available*
  • [empty] = Indicates an unobserved value
Date modified: